Home > Weather > Entebbe > Past weeks

Flag for Uganda Past Weather in Entebbe, Uganda — Yesterday and Last 2 Weeks

Now
66 °F

Passing clouds.


Feels Like: 66 °F
Forecast: 62 / 78 °F
Wind: 12 mph from North

Location: Entebbe Airport

Current Time: Jul 29, 2016 at 3:12:08 AM

Latest Report: Jul 29, 2016 at 2:00 AM


Visibility: 5 mi

Pressure: 30.04 "Hg (26.23 "Hg at 1160m altitude)

Humidity: 94%

Dew Point: 64 °F

Location of EntebbeLocation

Past Weather in Entebbe — Graph

°F

Entebbe Temperature Yesterday

Maximum temperature yesterday: 77 °F (at 1:00 PM)
Minimum temperature yesterday: 66 °F (at 5:00 AM)
Average temperature yesterday: 71 °F

High & Low Weather Summary for the Past Weeks

 TemperatureHumidityPressure
High84 °F (Jul 16, 1:00 AM)100% (Jul 17, 6:00 AM)30.15 "Hg (Jul 17, 6:00 AM)
Low64 °F (Jul 15, 6:00 AM)48% (Jul 27, 4:00 PM)29.98 "Hg (Jul 24, 4:00 PM)
Average72 °F78%30.06 "Hg
* Reported Jul 14 1:00 AM — Jul 29 1:00 AM, Entebbe, Weather by CustomWeather, © 2016

Note: Actual official high and low records may vary slightly from our data, if they occured in-between our weather recording intervals... More about our weather records

Advertising

Entebbe Weather History for the Previous 24 Hours

Scroll right to see more
 ConditionsComfort  
Time TempWeatherWind HumidityBarometerVisibility
1:00 AM
Fri, Jul 29
66 °FPartly cloudy.10 mph94%30.07 "Hg5 mi
12:00 AM68 °FPartly cloudy.12 mph88%30.07 "Hg5 mi
11:00 PM
Thu, Jul 28
68 °FPassing clouds.13 mph94%30.07 "Hg5 mi
10:00 PM70 °FPassing clouds.16 mph88%30.07 "Hg5 mi
9:00 PM72 °FPassing clouds.5 mph83%30.04 "Hg6 mi
8:00 PM72 °FPassing clouds.3 mph78%30.04 "Hg6 mi
7:00 PM73 °FPartly cloudy.2 mph74%30.01 "Hg6 mi
6:00 PM75 °FPartly sunny.10 mph74%30.01 "Hg6 mi
5:00 PM73 °FPartly sunny.5 mph78%30.01 "Hg6 mi
4:00 PM73 °FPartly sunny.9 mph78%30.04 "Hg6 mi
3:00 PM75 °FPartly sunny.12 mph74%30.04 "Hg6 mi
2:00 PM77 °FScattered clouds.10 mph69%30.07 "Hg6 mi
1:00 PM77 °FBroken clouds.2 mph65%30.09 "Hg6 mi
12:00 PM75 °FBroken clouds.2 mph69%30.12 "Hg6 mi
11:00 AM72 °FMild.7 mph78%30.12 "Hg5 mi
10:00 AM70 °FMild.5 mph83%30.12 "Hg5 mi
9:00 AM68 °FScattered clouds.7 mph88%30.12 "Hg4 mi
8:00 AM66 °FMore clouds than sun.8 mph94%30.09 "Hg4 mi
7:00 AM66 °FScattered clouds.9 mph94%30.07 "Hg4 mi
6:00 AM66 °FPassing clouds.16 mph94%30.07 "Hg4 mi
5:00 AM66 °FPassing clouds.15 mph94%30.04 "Hg5 mi
4:00 AM68 °FPassing clouds.15 mph83%30.01 "Hg5 mi
3:00 AM68 °FPassing clouds.16 mph83%30.04 "Hg5 mi
Weather by CustomWeather, © 2016

See weather overviewHow to use our weather pages